Weather History for Harrisburg, PA

Change the Weather History Date:

Sunday, November 24, 2013

  Actual Average Record
Temperature  
Mean Temperature 26 °F -  
Max Temperature 30 °F 48 °F 70 °F (2014)
Min Temperature 21 °F 33 °F 19 °F (1956)
Degree Days  
Heating Degree Days 40    
Moisture  
Dew Point 4 °F    
Average Humidity 40    
Maximum Humidity 65    
Minimum Humidity 24    
Precipitation  
Precipitation 0.00 in - - ()
Sea Level Pressure  
Sea Level Pressure 30.36 in    
Wind  
Wind Speed 14 mph (WNW)    
Max Wind Speed 21 mph    
Max Gust Speed 32 mph    
Visibility 10 miles    
Events Snow    
Averages and records for this station are not official NWS values.
T = Trace of Precipitation, MM = Missing Value Source: NWS Daily Summary

Daily Weather History Graph

Daily Weather History Graph

Search for Another Location

Airport:

Trip Planner

Search our weather history database for the weather conditions in past years. The results will help you decide how hot, cold, wet, or windy it might be!

Date:

Astronomy

Nov. 24, 2013 Rise Set
Actual Time 7:03 AM EST 4:44 PM EST
Civil Twilight 6:33 AM EST 5:14 PM EST
Nautical Twilight 6:00 AM EST 5:47 PM EST
Astronomical Twilight 5:27 AM EST 6:20 PM EST
Moon 11:08 PM EST (11/24) 11:50 AM EST (11/24)
Length of Visible Light 10h 40m
Length of Day
9h 41m
Waning Gibbous, 61% of the Moon is Illuminated
Nov 24
Waning Gibbous
Nov 25
Last Quarter
Dec 2
New
Dec 9
First Quarter
Dec 17
Full

Hourly Weather History & Observations

Time (EST) Temp. Windchill Dew Point Humidity Pressure Visibility Wind Dir Wind Speed Gust Speed Precip Events Conditions
12:56 AM 26.1 °F 14.5 °F 1.0 °F 34% 30.21 in 10.0 mi NW 13.8 mph 32.2 mph N/A   Scattered Clouds
1:56 AM 25.0 °F 13.1 °F 5.0 °F 43% 30.22 in 10.0 mi WNW 13.8 mph 24.2 mph N/A   Partly Cloudy
2:56 AM 25.0 °F 13.1 °F 8.1 °F 49% 30.23 in 10.0 mi WNW 13.8 mph 26.5 mph N/A   Scattered Clouds
3:56 AM 24.1 °F 12.5 °F 14.0 °F 65% 30.24 in 6.0 mi WNW 12.7 mph 19.6 mph 0.00 in Snow Light Snow
4:56 AM 24.1 °F 10.6 °F 5.0 °F 44% 30.25 in 10.0 mi NW 17.3 mph 28.8 mph 0.00 in   Partly Cloudy
5:56 AM 23.0 °F 10.6 °F 3.0 °F 42% 30.28 in 10.0 mi NW 13.8 mph 21.9 mph N/A   Clear
6:56 AM 21.9 °F 9.2 °F 1.9 °F 42% 30.30 in 10.0 mi WNW 13.8 mph 21.9 mph N/A   Clear
7:56 AM 23.0 °F 10.6 °F 1.9 °F 40% 30.34 in 10.0 mi NW 13.8 mph - N/A   Clear
8:56 AM 24.1 °F 9.4 °F 3.0 °F 40% 30.36 in 10.0 mi NW 20.7 mph 32.2 mph N/A   Partly Cloudy
9:56 AM 27.0 °F 14.3 °F 1.9 °F 34% 30.37 in 10.0 mi NW 17.3 mph 29.9 mph N/A   Partly Cloudy
10:56 AM 27.0 °F 16.1 °F 1.9 °F 34% 30.37 in 10.0 mi NNW 12.7 mph 25.3 mph N/A   Partly Cloudy
11:56 AM 28.9 °F 16.9 °F 1.0 °F 30% 30.36 in 10.0 mi NW 17.3 mph 25.3 mph N/A   Partly Cloudy
12:56 PM 30.0 °F 17.9 °F -0.9 °F 27% 30.36 in 10.0 mi NNW 18.4 mph 26.5 mph N/A   Scattered Clouds
1:56 PM 30.9 °F 20.7 °F -2.0 °F 24% 30.36 in 10.0 mi WNW 13.8 mph 21.9 mph N/A   Mostly Cloudy
2:56 PM 30.9 °F 21.2 °F -2.0 °F 24% 30.37 in 10.0 mi WNW 12.7 mph 21.9 mph N/A   Scattered Clouds
3:56 PM 28.9 °F 17.7 °F -2.9 °F 25% 30.40 in 10.0 mi NW 15.0 mph - N/A   Scattered Clouds
4:56 PM 28.0 °F 18.6 °F -2.0 °F 27% 30.41 in 10.0 mi WNW 10.4 mph - N/A   Partly Cloudy
5:56 PM 26.1 °F 16.2 °F -0.0 °F 32% 30.43 in 10.0 mi WNW 10.4 mph 16.1 mph N/A   Partly Cloudy
6:56 PM 25.0 °F 16.3 °F 6.1 °F 45% 30.46 in 10.0 mi West 8.1 mph - N/A   Mostly Cloudy
7:56 PM 26.1 °F 14.5 °F 9.0 °F 49% 30.47 in 10.0 mi WNW 13.8 mph 21.9 mph N/A   Partly Cloudy
8:56 PM 25.0 °F 16.3 °F 9.0 °F 51% 30.48 in 10.0 mi WNW 8.1 mph - N/A   Partly Cloudy
9:56 PM 24.1 °F 13.1 °F 7.0 °F 48% 30.48 in 10.0 mi WNW 11.5 mph - N/A   Clear
10:56 PM 24.1 °F 16.0 °F 7.0 °F 48% 30.49 in 10.0 mi West 6.9 mph - N/A   Clear
11:56 PM 21.9 °F 14.5 °F 8.1 °F 55% 30.48 in 10.0 mi West 5.8 mph - N/A   Clear